Location: Usti nad Labem
(50.6670°N, 14.0330°E)
Time: 23:41:35
(UTC+01:00)

ISS - Visible Passes

Search period start: 19 December 2014 00:00
Search period end: 29 December 2014 00:00
Orbit: 404 x 415 km, 51.6° (Epoch: 19 December)

Date Brightness Start Highest point End Pass type
(mag) Time Alt. Az. Time Alt. Az. Time Alt. Az.
19 Dec -3.4 17:47:09 10° W 17:50:28 74° N 17:51:20 45° ENE visible
19 Dec 0.1 19:23:48 10° W 19:24:05 12° W 19:24:05 12° W visible
20 Dec -3.3 16:56:24 10° W 16:59:42 72° N 17:02:43 12° E visible
20 Dec -2.2 18:33:03 10° WNW 18:35:28 45° W 18:35:28 45° W visible
21 Dec -3.4 17:42:15 10° WNW 17:45:34 89° NNE 17:46:53 34° ESE visible
21 Dec 0.0 19:19:00 10° W 19:19:38 14° W 19:19:38 14° W visible
22 Dec -3.3 16:51:24 10° W 16:54:42 77° N 16:58:00 10° E visible
22 Dec -2.3 18:28:03 10° W 18:31:05 43° SSW 18:31:05 43° SSW visible
23 Dec -2.9 17:37:07 10° WNW 17:40:22 61° SSW 17:42:37 18° SE visible
23 Dec -0.2 19:14:23 10° W 19:15:24 14° WSW 19:15:24 14° WSW visible
24 Dec -3.2 16:46:09 10° WNW 16:49:28 82° SSW 16:52:45 10° ESE visible
24 Dec -1.1 18:23:00 10° W 18:25:43 24° SW 18:27:04 18° S visible
25 Dec -1.8 17:31:49 10° W 17:34:52 35° SSW 17:37:54 10° SE visible
26 Dec -2.4 16:40:42 10° W 16:43:55 52° SSW 16:47:07 10° SE visible
26 Dec -0.2 18:18:24 10° WSW 18:19:54 13° SW 18:21:24 10° SSW visible
27 Dec -0.5 17:26:34 10° W 17:29:02 20° SW 17:31:28 10° S visible
